Date,TemperatureHighF,TemperatureAvgF,TemperatureLowF,DewpointHighF,DewpointAvgF,DewpointLowF,HumidityHigh,HumidityAvg,HumidityLow,PressureMaxIn,PressureMinIn,WindSpeedMaxMPH,WindSpeedAvgMPH,GustSpeedMaxMPH,PrecipitationSumIn
2013-9-1,75.7,67.9,63.5,69.3,64.1,32.8,90,88,79,30.18,30.10,57,25,0,0.00
2013-9-2,81.1,71.1,64.5,70.4,64.9,0.0,90,81,27,30.17,30.10,57,28,0,0.00
2013-9-3,75.9,67.9,58.2,66.3,60.4,53.7,90,78,57,30.28,30.12,57,25,0,0.00
2013-9-4,75.9,62.2,52.1,63.7,55.6,37.2,90,80,61,30.38,30.28,57,29,0,0.00
2013-9-5,75.9,62.5,51.6,63.1,55.7,48.5,90,79,61,30.41,30.36,57,34,0,0.00
2013-9-6,75.9,63.7,54.1,61.7,55.7,24.3,90,77,55,30.45,30.35,57,43,0,0.00
2013-9-7,78.4,63.8,53.2,62.0,54.4,49.7,89,74,45,30.37,30.25,57,39,0,0.00
2013-9-8,80.6,66.3,56.1,67.2,58.7,50.9,87,77,60,30.31,30.22,57,31,0,0.00
2013-9-9,78.6,68.2,60.6,68.7,62.7,57.0,90,83,71,30.42,30.30,57,24,0,0.00
2013-9-10,84.7,72.3,63.3,71.4,65.6,30.0,90,80,63,30.49,30.41,57,39,0,0.00
2013-9-11,83.6,72.1,63.6,72.7,65.9,60.3,89,81,60,30.48,30.35,57,38,0,0.00
2013-9-12,79.3,69.0,63.3,71.2,64.5,60.0,90,86,67,30.36,30.13,57,41,0,0.12
2013-9-13,67.4,61.1,51.2,60.0,53.2,45.4,90,76,53,30.23,30.07,57,19,0,0.02
2013-9-14,59.1,48.3,42.9,48.3,43.6,22.6,89,84,66,30.33,30.22,57,45,0,0.00
2013-9-15,71.2,64.3,0.0,99.9,56.0,51.3,100,72,61,30.44,30.34,57,7,0,0.00
2013-9-16,63.1,57.3,49.2,58.3,52.8,45.5,90,85,78,30.48,30.34,57,40,0,0.00
2013-9-17,67.8,55.1,44.2,56.1,48.4,41.5,91,79,59,30.56,30.47,57,29,0,0.00
2013-9-18,65.8,55.6,46.5,56.8,50.5,43.4,90,83,72,30.50,30.38,57,44,0,0.04
2013-9-19,68.9,61.2,10.5,63.5,57.8,7.2,90,88,83,30.41,30.31,57,42,0,0.06
2013-9-20,73.0,65.1,62.2,67.9,61.7,56.3,90,89,83,30.33,30.20,57,42,0,0.41
2013-9-21,66.3,61.7,54.8,62.7,58.6,51.9,91,90,87,30.20,29.98,57,12,0,0.63
2013-9-22,66.9,55.4,46.9,57.6,49.5,44.3,91,82,62,30.21,30.05,57,17,0,0.00
2013-9-23,68.9,53.2,41.9,56.5,47.0,35.9,90,80,59,30.30,30.20,63,42,0,0.00
2013-9-24,73.0,60.3,51.0,60.6,54.3,47.9,90,81,64,30.32,30.19,57,25,0,0.00
2013-9-25,64.5,58.7,0.0,99.9,56.8,54.0,100,87,82,30.18,30.13,57,41,0,0.02
2013-9-26,73.5,61.3,51.6,61.9,55.1,48.8,90,81,62,30.31,30.16,57,43,0,0.00
2013-9-27,71.0,56.2,0.0,99.9,50.6,43.8,100,80,60,30.45,30.30,57,35,0,0.00
2013-9-28,66.0,57.5,50.9,56.6,51.5,21.6,89,81,67,30.49,30.41,57,11,0,0.00
2013-9-29,69.8,56.9,46.4,56.9,50.3,27.5,90,79,62,30.42,30.27,57,34,0,0.00
2013-9-30,68.5,57.6,48.2,58.8,52.2,44.8,89,82,70,30.32,30.25,57,37,0,0.00